Location: Newark
(48.2642°N, 4.7433°E)
Time: 12:28:28
(UTC+00:00)

ISS - Visible Passes

Search period start: 18 November 2019 00:00
Search period end: 28 November 2019 00:00
Orbit: 412 x 421 km, 51.6° (Epoch: 18 November)

Date Brightness Start Highest point End Pass type
(mag) Time Alt. Az. Time Alt. Az. Time Alt. Az.
21 Nov -1.2 18:15:25 10° SSW 18:16:02 13° S 18:16:02 13° S visible
22 Nov -1.7 17:27:53 10° S 17:29:52 15° SE 17:29:52 15° SE visible
23 Nov -2.2 18:14:32 10° SW 18:16:31 31° SSW 18:16:31 31° SSW visible
24 Nov -2.8 17:26:23 10° SSW 17:29:26 33° SE 17:30:10 29° ESE visible
24 Nov -0.4 19:02:42 10° W 19:03:05 13° W 19:03:05 13° W visible
25 Nov -2.1 16:38:29 10° SSW 16:41:07 22° SE 16:43:46 10° E visible
25 Nov -2.8 18:14:11 10° WSW 18:16:40 46° WSW 18:16:40 46° WSW visible
26 Nov -3.7 17:25:45 10° WSW 17:29:05 70° SSE 17:30:11 38° E visible
26 Nov -0.4 19:02:42 10° W 19:03:05 13° W 19:03:05 13° W visible
27 Nov -3.2 16:37:27 10° SW 16:40:40 46° SSE 16:43:40 12° ENE visible
27 Nov -2.5 18:14:06 10° W 18:16:34 40° WNW 18:16:34 40° WNW visible
